Dewpoint
48 47 46 45 44 46 44 46 46 47 46 46 45 45 45 45 45 43 42 42 41 41 42 43 46 48 48 46 44 46 45 43 41 42 43 45 49 50 48 48 49 50 52
46 46 45 44 45 46 46 45 46 46 45 46 45 45 45 43 42 40 39 40 40 40 40 43 45 47 46 44 44 45 45 44 44 42 44 44 46 50 47 46 48 49 50
44 45 45 46 48 46 46 46 45 44 44 46 45 45 42 42 39 38 37 39 39 40 41 45 46 48 45 44 44 44 41 40 40 43 41 43 46 46 45 45 46 48 50
41 43 44 45 45 46 47 43 42 44 45 44 45 45 43 41 40 39 38 39 39 40 43 45 44 43 43 44 41 40 39 38 38 39 42 43 45 45 45 44 45 46 48
45 43 42 44 46 44 44 46 45 44 45 45 45 45 42 40 39 39 38 40 39 40 43 43 43 42 46 46 44 40 38 38 38 39 39 44 42 44 43 43 45 47 47
42 43 45 44 44 43 44 45 45 46 44 45 45 45 42 41 42 43 42 39 38 40 41 41 42 41 43 42 41 41 40 38 38 37 43 41 41 43 43 43 43 45 43
43 46 45 42 42 43 43 44 45 44 45 45 45 45 44 42 44 43 43 39 38 41 41 40 40 38 43 39 39 40 40 41 42 42 39 36 39 39 41 42 42 46 45
44 46 42 42 42 42 42 45 43 45 45 44 45 45 45 43 45 42 42 38 40 41 41 40 38 40 41 40 40 38 37 37 38 38 36 37 39 40 42 44 45 46 46
46 42 42 42 42 42 41 43 42 44 44 44 44 44 43 45 42 40 39 39 39 38 37 38 39 40 41 41 39 39 39 38 41 41 41 41 42 43 46 45 44 42 43
42 42 42 42 43 41 42 42 43 43 43 44 44 44 44 41 41 40 39 38 37 37 37 37 40 41 41 40 39 39 38 39 38 37 37 37 40 45 46 47 48 44 43
42 42 42 43 42 40 41 41 42 43 44 44 41 43 42 41 39 39 39 37 36 37 35 36 36 39 39 39 39 38 40 40 38 38 37 36 37 39 42 42 43 46 44
41 42 44 42 43 42 42 41 44 44 43 36 36 39 41 40 41 40 39 39 39 37 36 37 38 39 39 39 38 39 39 39 39 36 35 35 35 36 38 40 42 46 48
44 44 44 42 42 37 39 42 39 40 38 37 39 39 38 38 39 40 39 39 39 38 38 39 40 39 38 38 38 39 37 39 35 35 36 36 36 38 40 41 42 44 46
44 42 43 41 39 39 42 44 42 40 39 39 38 37 37 37 37 37 37 37 38 38 38 38 40 39 39 39 37 37 35 36 36 35 36 37 39 39 39 40 40 42 44
43 45 42 38 38 40 41 39 38 35 38 39 38 37 36 37 36 37 37 36 37 38 39 38 37 37 37 37 37 37 37 36 35 37 37 38 38 39 39 40 41 41 42
42 43 42 40 39 39 38 38 38 37 38 37 37 36 36 38 37 37 37 37 37 38 38 37 37 37 36 36 36 36 37 37 36 36 37 38 38 39 39 40 40 40 41
42 41 42 39 33 35 36 38 39 36 38 37 37 38 40 39 37 37 37 36 37 38 37 37 37 36 36 37 36 36 36 37 38 37 37 37 38 39 38 39 39 40 40
42 43 37 35 34 36 37 37 40 39 38 38 38 37 39 38 37 37 36 37 37 37 38 37 37 37 37 37 37 36 36 36 37 37 37 37 39 39 38 38 39 39 39
44 43 36 35 35 37 37 35 39 38 38 37 38 38 37 37 37 37 37 38 37 37 38 38 38 38 37 37 37 36 36 35 35 35 37 38 39 39 38 38 38 36 37
42 38 35 33 35 35 35 38 38 38 37 37 38 37 37 37 37 37 38 38 38 38 38 38 38 38 37 37 36 36 35 35 35 34 36 37 39 38 37 37 38 38 39
40 40 35 33 35 34 35 38 38 36 36 37 37 37 33 36 37 37 37 37 39 39 38 38 38 38 37 36 36 35 34 33 34 34 34 35 37 37 38 38 38 38 39
34 35 35 35 35 32 34 38 37 36 37 37 37 36 33 37 37 37 37 37 38 39 39 38 38 38 37 35 35 35 35 34 34 33 33 34 36 37 38 37 38 38 40
31 35 35 36 34 33 38 37 36 36 37 37 36 36 37 37 37 37 37 37 37 38 38 39 39 38 37 37 35 35 35 35 36 36 34 33 34 36 37 37 38 39 40
31 35 35 35 33 33 38 37 36 35 36 37 37 37 38 37 37 37 37 37 37 37 38 39 39 38 36 36 36 36 37 36 34 33 34 35 34 35 36 37 38 39 39
37 36 36 33 35 35 37 37 38 37 36 36 36 38 38 37 37 37 37 37 36 37 37 38 38 37 35 35 35 36 34 32 33 33 34 34 35 36 36 37 38 39 40
36 34 31 33 37 36 38 38 37 37 37 36 36 38 38 38 37 37 36 36 36 36 36 37 37 36 35 36 36 33 33 33 33 32 35 35 35 35 37 37 38 39 40
Lifted_Index
4 5 6 8 10 11 11 11 11 11 11 11 11 12 11 12 12 12 12 13 12 12 12 12 11 11 11 11 12 13 14 14 14 14 13 12 12 11 11 12 11 9 6
5 5 7 9 10 11 11 11 11 11 11 11 11 11 11 12 12 13 13 13 13 13 13 12 11 11 11 12 13 13 14 15 15 14 13 13 12 12 12 12 11 9 6
5 6 7 9 10 10 10 10 11 11 11 11 11 11 11 12 12 13 14 14 14 13 12 12 11 11 12 12 13 14 14 15 15 15 14 13 13 12 12 12 11 9 7
6 7 8 10 10 10 10 10 11 11 11 11 11 11 11 12 12 13 13 13 13 13 12 12 12 12 12 12 13 14 14 15 15 15 14 14 13 12 12 11 11 9 7
7 8 10 10 11 11 11 10 10 10 10 10 11 11 11 11 12 12 13 13 13 12 12 12 12 12 12 13 13 14 14 15 15 15 15 14 13 13 12 12 11 9 7
8 9 10 11 11 11 11 10 10 10 10 10 10 10 10 11 11 12 12 12 12 13 13 13 13 13 13 13 14 14 15 15 16 16 15 14 13 13 12 12 11 9 7
9 10 10 11 11 11 11 11 10 10 10 10 10 10 10 10 11 11 11 12 12 13 13 13 13 13 13 14 14 15 15 16 16 16 16 15 14 13 12 11 11 9 8
10 10 10 11 11 11 11 11 11 10 10 10 10 10 10 10 10 11 11 12 12 13 13 14 14 14 14 14 15 15 16 16 16 17 16 16 14 13 12 11 10 9 9
10 10 11 11 11 11 11 11 11 10 10 10 10 10 10 10 10 11 11 12 12 12 13 14 15 15 15 15 15 16 16 16 16 16 16 15 14 12 11 10 10 9 9
10 10 11 11 11 11 11 10 10 10 10 10 11 10 10 11 11 12 12 12 11 12 12 14 15 15 15 16 16 16 16 16 16 17 16 15 14 12 11 10 10 9 9
11 11 10 10 10 10 10 10 10 10 10 11 11 11 11 12 12 12 12 12 11 11 12 13 13 14 15 16 16 16 16 16 17 17 17 16 14 12 11 11 10 10 9
10 10 10 10 10 10 10 10 10 10 11 11 12 12 12 12 13 13 12 12 11 11 11 12 12 13 14 15 16 16 16 16 16 17 17 16 14 13 12 11 10 10 9
10 10 10 10 10 11 11 11 11 11 11 11 11 11 12 12 13 12 12 11 10 10 10 11 11 12 13 14 15 15 16 16 16 16 16 15 14 13 12 11 10 10 9
10 10 10 10 11 11 11 11 11 11 11 11 11 11 11 12 13 12 12 11 10 10 10 10 10 11 12 12 13 14 15 15 15 15 15 15 14 13 12 11 10 9 9
10 10 10 11 11 11 11 11 10 10 10 10 11 11 12 12 13 13 12 11 11 10 10 9 10 10 11 11 11 12 13 14 15 15 15 14 13 12 11 11 10 9 8
10 10 10 11 11 11 11 10 10 10 10 10 11 11 12 12 13 13 12 11 11 10 10 9 9 9 10 10 10 10 11 13 14 15 14 14 13 11 10 10 9 9 8
9 10 10 11 11 11 10 10 10 10 10 10 11 12 12 12 12 12 12 11 10 10 9 9 9 9 9 9 10 10 11 12 12 13 13 13 12 11 10 9 9 8 7
9 9 10 11 10 10 10 10 10 9 10 10 11 12 12 12 12 12 11 10 10 9 9 9 9 9 9 10 10 10 11 11 11 12 12 12 11 10 9 8 8 8 7
9 10 10 10 10 10 10 10 10 10 10 11 11 12 12 12 11 11 11 10 9 9 9 9 9 10 10 10 11 11 11 11 11 11 11 11 11 10 9 8 8 7 7
10 10 10 10 10 10 10 10 10 10 10 11 12 12 11 11 11 10 10 10 10 10 10 9 10 10 11 11 11 11 11 11 11 11 11 11 10 9 8 8 7 7 6
11 11 10 10 10 10 10 10 10 10 11 12 12 12 12 11 11 10 10 10 10 10 10 10 10 11 11 12 12 11 11 12 12 12 11 11 10 9 8 8 7 7 6
11 10 10 10 10 10 10 10 10 10 11 11 12 12 12 12 11 11 10 10 11 11 11 11 11 12 12 12 12 12 12 12 12 12 12 11 10 9 9 8 8 7 7
10 10 10 10 10 10 10 10 10 11 11 11 12 13 13 13 12 12 11 11 11 11 11 12 12 13 13 13 13 13 13 13 13 13 12 12 11 10 9 8 8 8 7
10 10 10 10 10 10 10 10 11 11 11 12 12 13 13 13 13 12 12 11 11 11 12 12 13 14 14 14 13 13 13 13 13 13 13 12 11 10 10 9 9 8 8
10 10 10 10 10 10 10 11 11 11 11 12 12 13 13 13 12 12 12 11 11 12 13 13 14 14 14 14 13 13 13 13 13 13 13 12 12 11 10 10 9 9 9
10 10 10 11 10 10 11 11 11 11 12 12 13 13 13 13 12 12 11 11 11 12 13 14 15 15 14 14 13 13 13 13 13 13 13 13 12 11 11 10 10 9 9